ONEWEB-0629 (55170 NORAD) Tracking and Keplerian Element Data

This shows tracking and keplerian element data for the satellite.

Feedback or suggestion? Click here.




ElementValue
Catalog55170
NameONEWEB-0629
Epoch Orbit1121
Epoch Day84.9348051
Epoch Year2023
RAAN253.5585
Inclination86.6258
Eccentricity0.001515
Argument of Perigee336.0195
Mean Anonmoly24.0311
Mean Motion14.65738428
Decay Rate1.78E-05
L11 55170U 23004AG 23084.93480510 .00001780 00000+0 32224-3 0 9995
L22 55170 86.6258 253.5585 0015150 336.0195 24.0311 14.65738428 11211



Live tracking and technical data element details for ONEWEB-0629 (NORAD 55170). ONEWEB-0629 can be tracked NOW for your location showing map with azimuth and elevation plus other details from your city location.







IsCatalogInMostPopularTable: catalog: 55170, numindb: 12
Update: records affected: 1



GetName: 55170 ONEWEB-0629

Hit Count: updated at: Mon, 27 Mar 2023 06:24:35 GMT